Погода в Зиновьеве

Россия / Владимирская область     56°09′18″N   39°25′10″E
темп.,
°C
ветер,
м/с
пор.,
м/с
влажн.,
%
обл.,
%
осадки,
мм/ч
давл.,
гПа
погр.,
м
9 мая, вс
вс900:00+9ю3898100 3.8 1001449
03:00+9з2399100 5.1 1002148
06:00+6сз4898100 0.0 1004413
09:00+5сз51197100 0.6 1007563
12:00+3ссз51197100 0.9 1010615
15:00+4ссз61397100 1.6 1012837
18:00+6с51383100 0.2 10151262
21:00+4сз2489100 0.2 101882
10 мая, пн
пн1000:00+2сз38905 0.0 1020157
03:00+1ссз39921 0.0 1024189
06:00+2ссз310860 0.0 1026266
09:00+8с58540 0.0 10271028
12:00+11с57440 0.0 10281446
15:00+12ссв46432 0.0 10281473
18:00+11ссв355515 0.0 10281026
21:00+6ссв35790 0.0 103072
11 мая, вт
вт1100:00+4ссв35760 0.0 103078
03:00+3св37790 0.0 1031104
06:00+5св39772 0.0 1031224
09:00+11всв47625 0.0 1031680
12:00+15всв46480 0.0 1030973
15:00+17всв45460 0.0 1029963
18:00+16всв37600 0.0 1029676
21:00+10всв38833 0.0 1029133
12 мая, ср
ср1200:00+9всв398590 0.0 1029162
03:00+9всв310925 0.0 1028199
06:00+11всв412897 0.0 1027306
09:00+17в510735 0.0 1026548
12:00+20вюв596033 0.0 10261344
15:00+16юв1278100 0.0 102525
18:00+17в268190 0.4 1024216
21:00+14в3119155 1.3 1024234
13 мая, чт
чт1300:00+13в31191100 0.1 1024258
03:00+13в41290100 0.1 1023320
06:00+14вюв41288100 0.1 1023552
09:00+14в41289100 0.3 1022584
12:00+20вюв595745 0.0 10211222
15:00+16ю5976100 0.6 1021597
18:00+14в2108968 0.4 1020514
21:00+13юв399656 0.4 1020360